Weather in Komarichi

Russia / Bryansk Oblast     52°25′08″N   34°47′02″E
temp.,
°C
wind,
m/s
gust,
m/s
humid.,
%
clouds,
%
prec.,
mm/h
press.,
hPa
HPBL,
m
11 may, tue
tue1100:00+7nne5147423 0.0 1024348
03:00+6nne513787 0.0 1023314
06:00+6nne614845 0.0 1023344
09:00+12nne8137330 0.0 1022493
12:00+16ne811698 0.0 1021924
15:00+18ene81268100 0.0 10201482
18:00+10e5128697 0.3 1022489
21:00+7ene410951 0.3 1023229
12 may, wed
wed1200:00+7e512930 0.0 1024415
03:00+7ene36845 0.0 1024222
06:00+5ene389219 0.0 1025194
09:00+11ene687296 0.0 1024640
12:00+11ne6768100 0.0 10211081
15:00+9nne4478100 0.5 10191016
18:00+7se2392100 2.1 1017260
21:00+8ese51294100 2.4 1016572
13 may, thu
thu1300:00+6ese4119736 0.0 1016320
03:00+6ese5129699 0.0 1016389
06:00+8se5119339 1.9 1016565
09:00+10sse688396 1.9 1016709
12:00+14sse5762100 0.0 10161366
15:00+16s565699 0.0 10151596
18:00+16sse366791 0.0 1014470
21:00+11ese238563 0.0 101518
14 may, fri
fri1400:00+10se3694100 0.0 1015107
03:00+10ese3895100 0.0 1014133
06:00+12ese51294100 0.3 1014340
09:00+14ese51191100 0.9 1013388
12:00+19se7107537 1.4 10121029
15:00+21sse697342 4.3 10111182
18:00+20s478198 1.2 1011526
21:00+15s3691100 1.8 101186
15 may, sat
sat1500:00+14ssw2291100 0.0 101011
03:00+14se229298 0.2 101112
06:00+14se2294100 0.6 101035
09:00+16sse3592100 4.3 1010309
12:00+20sse346780 1.7 10101151
15:00+21ssw3563100 4.3 10091152
18:00
21:00+14wnw2288100 2.8 100920